Tracking 35274 objects as of 10-Sep-2026
HD Live streaming from Space Station
objects crossing your sky now

FORMOSAT 3E

Track FORMOSAT 3E now!
10-day predictions
FORMOSAT 3E is classified as:


NORAD ID: 29051
Int'l Code: 2006-011E
Launch date: April 15, 2006
Source: Taiwan (Republic of China) (ROC)
Launch site: AIR FORCE WESTERN TEST RANGE (AFWTR)

Uplink (MHz):
Downlink (MHz):
Beacon (MHz):
Mode:
Call sign:
Status: Unknown

Your satellite tracking list
Your tracking list is empty




NASA's NSSDC Master Catalog

Two Line Element Set (TLE):
1 29051U 06011E   26252.93719084  .00000224  00000-0  97567-4 0  9999
2 29051  72.0032 127.9052 0067235 302.6819  56.7846 14.31595590 67394
Source of the keplerian elements: AFSPC